Temp
12 12 12 13 14 15 15 15 15 16 16 17 17 17 16 16 15 15 15 15 15 15 15 15 15 16 16 16 17 17 17 16 17 17 17 17 17 17 17 17 17 17
11 11 12 12 13 14 14 14 14 15 15 16 16 16 15 14 14 15 15 15 16 16 16 16 15 16 16 16 16 17 17 17 17 17 17 17 17 17 17 17 17 17
10 10 11 11 12 13 14 14 14 14 15 15 15 15 15 15 15 15 16 16 16 17 17 16 16 15 16 16 16 16 17 17 16 16 17 17 17 17 17 17 17 17
10 10 10 10 11 12 14 14 14 14 14 14 15 15 15 15 15 15 16 17 17 17 17 17 16 16 15 15 16 16 16 17 16 16 16 16 16 17 17 17 17 17
10 10 10 10 10 11 12 14 14 14 14 14 14 15 15 15 15 15 16 16 17 17 17 17 16 16 16 15 15 16 16 16 16 16 16 16 16 16 16 16 17 17
10 10 10 10 10 10 11 12 13 14 14 14 14 14 15 15 15 15 15 16 17 17 17 17 17 16 16 16 15 15 16 16 16 16 16 16 16 16 16 16 16 17
9 10 10 10 10 10 10 10 11 13 14 15 14 14 14 15 15 15 15 15 16 17 17 17 17 17 16 16 16 15 15 16 16 16 16 16 16 16 16 16 16 16
9 9 10 10 10 10 10 10 10 11 13 14 15 15 14 14 15 15 15 15 15 16 17 17 17 17 17 16 16 16 15 15 16 16 16 16 16 16 16 16 16 16
9 9 9 9 10 10 10 10 10 10 11 12 14 15 15 14 14 15 15 15 15 15 16 17 17 17 17 17 16 16 16 16 16 16 16 16 16 16 16 16 16 16
8 8 9 9 9 9 10 10 10 10 10 11 12 13 14 15 14 14 15 15 15 15 15 16 17 17 17 17 17 16 16 16 16 16 16 16 16 15 16 16 16 16
8 8 8 9 9 9 9 10 10 10 10 10 11 12 13 14 14 14 15 15 15 15 15 15 16 17 17 17 17 17 16 16 16 16 16 16 16 15 15 16 16 16
7 8 8 8 8 9 9 9 9 10 10 10 10 11 12 13 14 14 15 15 15 15 15 15 15 16 16 17 17 17 16 16 16 16 16 16 16 16 15 16 16 16
7 7 7 8 8 8 8 9 9 9 10 10 10 11 11 12 13 14 14 15 15 15 15 15 15 16 16 16 16 16 16 16 16 16 16 16 16 16 16 16 16 16
7 7 7 7 8 8 8 8 9 9 9 10 10 10 11 12 12 13 14 14 15 15 15 15 15 16 16 16 16 16 16 16 17 16 16 16 17 16 16 16 16 16
6 7 7 7 7 8 8 8 8 9 9 9 10 10 10 11 12 13 13 14 14 14 15 15 15 16 16 16 16 16 16 16 17 17 17 17 17 17 16 16 16 16
6 6 7 7 7 8 8 8 8 9 9 9 10 10 10 11 11 12 13 13 14 14 14 15 15 15 16 16 16 16 16 16 16 16 17 17 17 17 16 16 16 16
6 6 7 7 7 7 8 8 8 9 9 9 9 10 10 10 11 12 12 13 13 14 14 14 15 15 15 16 16 16 16 16 16 16 17 17 17 17 17 16 16 16
6 7 7 7 8 8 8 8 8 8 9 9 9 10 10 10 11 11 12 13 13 13 14 14 14 15 15 15 16 16 16 16 16 16 16 17 17 17 17 17 16 16
6 7 7 8 8 9 8 8 8 8 9 9 9 9 10 10 11 11 11 12 13 13 13 14 14 15 15 15 15 15 16 16 16 16 16 16 17 17 17 17 17 16
6 7 7 8 8 9 9 8 8 8 9 9 9 9 10 10 10 11 11 12 12 13 13 13 14 14 15 15 15 15 15 15 16 16 16 16 16 17 17 17 17 17
7 7 8 8 8 9 9 9 8 9 9 9 9 9 10 10 10 11 11 12 12 12 12 13 13 14 14 15 15 15 14 14 15 16 16 16 16 16 17 17 17 17
7 8 8 9 9 9 9 9 9 9 9 9 9 9 9 10 10 10 11 11 12 12 12 12 13 13 14 14 14 15 15 14 15 15 16 16 16 16 17 17 17 17
8 8 8 9 9 9 9 9 9 9 9 9 9 9 9 10 10 10 11 12 12 12 12 12 13 13 14 14 14 14 15 15 15 15 16 16 15 16 16 17 17 17
8 8 8 9 9 9 9 9 9 9 9 9 9 9 10 10 10 10 11 11 12 12 12 12 13 13 14 15 14 14 14 14 14 15 15 16 15 16 16 16 16 17
8 8 8 9 9 9 9 9 9 9 9 10 10 10 11 11 11 11 10 11 11 11 12 12 13 13 13 14 14 14 14 14 14 15 15 15 15 16 16 16 16 16
8 8 8 9 9 9 9 9 9 9 10 10 10 10 11 11 11 11 11 11 11 11 11 11 12 12 12 12 13 13 13 13 14 14 14 15 15 15 15 15 15 15
Height
1476 1476 1477 1478 1479 1481 1483 1486 1489 1490 1492 1494 1498 1501 1504 1506 1508 1510 1511 1513 1513 1512 1511 1511 1512 1512 1513 1514 1515 1516 1517 1517 1518 1519 1520 1522 1524 1526 1528 1529 1531 1532
1474 1474 1475 1475 1477 1479 1481 1484 1486 1488 1489 1491 1493 1496 1499 1501 1501 1502 1505 1507 1507 1507 1507 1508 1509 1510 1511 1512 1512 1513 1514 1514 1515 1516 1517 1519 1521 1523 1525 1527 1529 1530
1473 1473 1474 1475 1476 1477 1479 1481 1483 1485 1486 1488 1490 1493 1495 1497 1498 1498 1500 1502 1503 1503 1503 1504 1506 1507 1508 1509 1509 1510 1510 1511 1512 1513 1515 1516 1518 1520 1522 1524 1526 1528
1472 1472 1473 1474 1475 1475 1477 1478 1479 1481 1483 1484 1487 1489 1491 1493 1494 1494 1495 1497 1497 1498 1499 1500 1502 1504 1505 1506 1507 1507 1507 1508 1509 1510 1512 1513 1514 1516 1518 1520 1523 1525
1471 1471 1471 1472 1473 1474 1475 1475 1476 1478 1479 1480 1483 1485 1486 1488 1490 1490 1490 1491 1493 1494 1496 1497 1499 1500 1502 1503 1503 1503 1503 1504 1506 1507 1509 1510 1512 1513 1515 1517 1519 1521
1469 1470 1470 1470 1471 1472 1472 1473 1474 1475 1476 1477 1479 1481 1482 1483 1485 1486 1486 1487 1488 1491 1493 1494 1495 1496 1498 1499 1500 1500 1500 1500 1502 1504 1505 1507 1509 1510 1512 1514 1515 1517
1467 1468 1468 1468 1468 1469 1469 1470 1471 1472 1473 1475 1476 1477 1478 1479 1481 1482 1482 1483 1484 1486 1489 1491 1492 1493 1494 1495 1496 1496 1497 1497 1498 1500 1501 1503 1505 1507 1509 1511 1512 1514
1465 1464 1465 1465 1466 1466 1466 1467 1468 1468 1469 1471 1472 1473 1474 1475 1477 1478 1479 1479 1479 1481 1484 1486 1488 1489 1490 1491 1492 1492 1493 1494 1495 1496 1498 1499 1502 1504 1506 1507 1509 1510
1463 1462 1461 1461 1462 1462 1462 1463 1464 1465 1466 1467 1467 1469 1471 1472 1473 1474 1475 1475 1475 1476 1478 1481 1483 1484 1485 1487 1488 1488 1489 1490 1491 1492 1494 1496 1498 1500 1502 1504 1506 1507
1461 1460 1459 1458 1458 1458 1458 1459 1459 1460 1461 1462 1463 1465 1466 1468 1469 1470 1471 1472 1472 1472 1473 1475 1477 1478 1480 1482 1483 1484 1485 1486 1488 1489 1490 1492 1494 1496 1498 1501 1502 1504
1458 1457 1457 1456 1455 1454 1455 1455 1455 1455 1456 1457 1458 1460 1461 1463 1465 1466 1466 1467 1467 1468 1470 1471 1472 1473 1475 1477 1478 1479 1481 1482 1484 1485 1487 1489 1491 1493 1495 1497 1499 1500
1454 1453 1453 1452 1452 1451 1451 1451 1451 1451 1452 1452 1453 1454 1456 1458 1459 1461 1462 1462 1463 1464 1466 1468 1469 1469 1471 1473 1474 1475 1477 1479 1481 1482 1483 1485 1487 1489 1492 1494 1496 1497
1449 1449 1448 1447 1447 1447 1448 1448 1448 1448 1448 1448 1449 1450 1451 1452 1454 1455 1456 1458 1459 1460 1462 1465 1466 1467 1467 1469 1470 1472 1474 1475 1477 1479 1480 1481 1483 1486 1488 1490 1492 1494
1445 1445 1443 1443 1443 1443 1443 1443 1444 1444 1444 1444 1445 1445 1445 1447 1448 1450 1451 1453 1455 1456 1458 1460 1462 1464 1464 1466 1467 1469 1470 1472 1473 1475 1476 1478 1479 1482 1485 1487 1489 1491
1442 1441 1440 1439 1438 1438 1438 1438 1439 1440 1441 1441 1441 1441 1441 1442 1444 1446 1447 1448 1450 1451 1453 1455 1457 1459 1461 1463 1465 1466 1466 1468 1470 1471 1473 1474 1476 1478 1481 1483 1485 1487
1439 1438 1436 1435 1434 1434 1433 1433 1434 1435 1436 1436 1437 1437 1438 1439 1440 1441 1443 1444 1445 1447 1449 1451 1453 1455 1457 1460 1462 1462 1463 1464 1466 1467 1469 1471 1473 1474 1476 1478 1481 1483
1435 1434 1432 1432 1431 1430 1429 1429 1429 1430 1431 1431 1432 1433 1434 1435 1436 1437 1438 1440 1441 1442 1444 1446 1448 1450 1453 1456 1459 1460 1460 1460 1462 1464 1466 1467 1469 1470 1472 1474 1476 1478
1431 1429 1428 1427 1426 1425 1425 1425 1425 1425 1425 1426 1427 1428 1429 1430 1432 1433 1434 1436 1437 1438 1440 1442 1443 1446 1448 1451 1453 1455 1457 1457 1458 1460 1461 1463 1465 1467 1468 1470 1472 1474
1426 1424 1423 1422 1420 1419 1419 1420 1420 1420 1421 1421 1422 1423 1425 1425 1426 1428 1429 1431 1433 1433 1435 1436 1438 1441 1443 1445 1448 1450 1453 1454 1455 1456 1457 1459 1462 1464 1465 1466 1468 1470
1421 1419 1417 1416 1415 1414 1415 1416 1416 1416 1416 1417 1418 1419 1420 1420 1421 1422 1424 1426 1427 1428 1430 1432 1434 1436 1438 1441 1444 1447 1449 1450 1451 1452 1454 1456 1458 1460 1461 1463 1465 1466
1418 1415 1413 1412 1411 1410 1410 1411 1411 1412 1412 1413 1414 1415 1415 1416 1417 1418 1419 1421 1422 1424 1426 1428 1429 1432 1435 1438 1441 1443 1446 1447 1448 1449 1451 1452 1454 1456 1457 1459 1461 1462
1415 1412 1410 1409 1408 1408 1407 1407 1407 1408 1409 1410 1410 1411 1412 1412 1413 1414 1415 1416 1418 1419 1422 1423 1425 1428 1431 1434 1437 1440 1442 1444 1446 1447 1447 1448 1450 1452 1453 1454 1456 1458
1413 1410 1408 1406 1406 1406 1405 1405 1405 1405 1406 1407 1407 1407 1408 1409 1409 1410 1411 1413 1414 1415 1417 1419 1421 1423 1427 1429 1433 1435 1437 1439 1442 1443 1444 1444 1446 1447 1448 1449 1451 1453
1413 1409 1406 1405 1405 1404 1404 1403 1403 1402 1402 1402 1403 1403 1404 1405 1407 1408 1409 1410 1410 1411 1413 1415 1417 1420 1422 1425 1427 1430 1433 1435 1437 1439 1440 1441 1442 1443 1444 1445 1446 1447
1412 1408 1405 1404 1403 1403 1403 1402 1401 1400 1399 1399 1398 1398 1399 1400 1402 1404 1406 1407 1407 1407 1408 1410 1412 1414 1417 1419 1422 1425 1428 1430 1432 1434 1435 1437 1438 1439 1440 1440 1441 1443
1413 1409 1407 1405 1403 1403 1402 1401 1400 1398 1398 1397 1396 1395 1395 1394 1395 1397 1400 1402 1403 1404 1404 1405 1407 1409 1412 1415 1418 1421 1422 1423 1425 1428 1430 1432 1434 1434 1435 1436 1437 1439
Wind_Speed
20 20 19 18 19 20 22 23 23 24 26 27 30 36 40 38 33 31 32 31 29 28 28 29 29 28 26 26 28 29 28 26 27 29 32 34 34 32 30 29 27 24
21 20 20 20 21 21 23 26 27 26 27 28 30 34 39 39 33 29 29 26 25 25 25 27 29 31 29 28 27 29 30 29 28 28 31 33 34 35 33 32 30 27
21 20 20 20 21 23 24 27 29 29 28 29 30 31 34 34 33 34 33 29 26 26 26 26 28 30 31 30 28 29 30 31 30 29 30 32 32 34 35 34 33 31
19 19 20 20 21 23 25 27 30 32 31 31 31 31 30 30 32 35 37 35 31 28 28 27 27 29 30 30 29 28 28 30 32 30 30 31 31 32 33 34 34 34
19 19 20 20 20 22 24 27 30 33 34 32 31 31 31 29 30 33 35 36 35 32 30 30 29 29 30 30 30 29 29 29 31 32 32 32 32 32 32 32 33 34
21 21 22 21 21 21 23 25 28 32 35 35 31 30 31 30 31 33 34 35 36 35 33 31 31 31 31 29 29 30 30 30 31 32 33 33 33 32 31 31 32 32
21 21 22 23 24 24 23 24 26 29 33 37 35 31 30 30 32 33 33 34 36 37 36 34 32 32 32 29 29 31 31 31 32 32 33 34 33 32 31 31 31 32
22 22 21 22 25 26 26 26 26 27 29 33 37 36 32 31 32 34 34 35 36 37 38 38 34 32 32 30 30 31 32 32 34 34 33 33 33 34 33 32 32 32
23 24 24 23 24 26 28 27 27 28 29 30 34 37 37 35 33 33 34 35 36 36 37 39 38 35 33 32 31 31 32 32 35 36 35 33 33 35 35 34 33 33
23 24 25 25 26 26 27 28 28 28 28 30 31 33 37 38 36 33 33 35 37 37 36 37 40 39 36 34 32 31 32 32 33 35 37 36 34 34 34 34 35 35
22 23 25 27 28 28 28 28 29 29 28 30 31 31 34 37 38 36 35 36 38 37 35 34 38 40 38 36 34 32 32 32 32 34 36 37 36 35 34 33 34 36
24 24 25 27 28 29 29 29 30 31 30 30 31 32 32 34 37 39 38 38 38 37 36 35 37 37 37 36 35 34 33 33 32 33 35 38 38 37 36 34 34 35
27 26 26 27 28 28 29 30 30 31 32 31 31 32 33 34 35 38 40 39 39 39 38 37 36 35 35 34 34 35 35 34 32 31 34 37 39 39 39 38 36 34
28 28 27 28 29 28 28 30 30 30 31 32 32 32 34 35 35 36 39 40 39 38 39 39 38 37 36 36 35 35 36 35 33 32 32 34 37 39 40 40 39 37
28 28 29 30 30 29 29 30 31 31 31 31 32 33 34 35 35 35 37 39 40 39 40 41 40 39 39 38 37 37 37 36 34 32 33 33 34 36 39 42 42 41
28 28 29 29 29 30 30 31 31 32 32 32 32 33 33 35 36 36 36 38 40 40 41 41 42 42 40 39 38 38 38 37 35 33 33 32 32 34 37 42 44 44
28 29 30 30 30 30 30 31 32 32 32 33 33 33 33 33 35 36 37 38 39 41 42 42 43 44 42 40 39 39 38 38 37 36 34 33 32 33 35 40 44 46
28 29 30 31 32 31 31 31 32 33 34 34 33 33 32 33 34 35 36 37 39 41 42 43 43 44 44 41 40 40 40 39 38 38 36 34 33 33 34 37 41 44
27 27 29 29 30 31 31 29 29 32 34 35 34 33 33 33 35 35 36 38 39 41 42 43 44 44 46 45 40 38 40 40 38 38 39 37 34 32 32 35 37 41
29 29 28 27 27 29 28 28 28 30 33 34 34 33 34 35 35 36 36 38 40 40 40 42 44 45 46 48 45 38 37 40 40 38 38 39 36 34 34 34 36 38
33 31 27 24 23 26 27 28 28 29 31 33 33 33 34 35 36 37 38 39 41 41 40 40 42 44 44 46 47 41 34 34 37 35 36 37 37 36 36 36 37 39
32 28 23 20 20 23 26 26 26 28 30 31 32 33 34 34 35 37 38 38 40 41 40 40 40 42 42 43 45 41 34 31 34 36 36 38 38 37 37 38 39 40
31 26 20 19 19 20 22 23 24 26 28 29 31 33 33 34 35 37 37 36 37 38 38 38 38 39 39 41 43 41 35 32 36 39 40 39 39 38 38 38 40 42
30 25 19 17 19 19 20 22 24 25 26 27 28 30 30 29 31 32 32 32 34 35 35 35 35 35 36 39 42 43 40 37 37 40 42 40 40 40 39 39 40 42
28 25 21 17 18 19 20 21 24 24 24 25 27 27 25 24 25 27 28 28 30 31 32 34 35 35 34 35 38 41 43 42 40 40 42 41 40 41 40 40 41 41
25 24 23 20 18 18 20 21 22 22 21 22 24 25 24 23 23 25 27 28 27 26 28 32 35 36 34 33 34 35 37 39 40 41 43 42 41 41 40 39 40 40
Wind_Direction
273 270 270 261 251 242 236 238 239 240 239 236 242 245 240 235 233 229 226 225 228 231 230 227 229 235 238 233 224 219 220 226 229 224 220 220 220 221 222 221 223 222
285 273 268 263 256 245 233 231 236 241 241 237 237 239 236 232 230 231 232 230 228 232 235 233 234 236 238 237 232 226 221 222 228 229 226 225 223 223 223 221 221 221
291 282 272 265 258 252 241 232 230 235 240 238 237 239 238 235 233 236 240 239 235 235 237 235 235 237 237 237 236 233 228 223 223 227 229 229 228 227 227 225 222 222
284 282 277 268 260 256 250 240 233 231 234 236 237 239 241 238 234 235 238 240 240 237 236 236 236 237 236 236 236 236 235 229 223 222 226 228 229 229 230 228 226 225
278 276 276 271 264 259 255 249 241 235 233 235 236 237 238 236 234 233 234 236 237 236 235 236 237 237 236 236 236 236 237 234 227 222 223 226 228 229 230 230 229 229
279 276 274 271 266 260 256 253 248 242 237 236 237 238 238 237 235 233 231 231 233 233 233 233 233 236 236 235 235 234 235 235 231 226 223 224 227 229 230 230 230 230
277 276 275 273 270 264 257 253 249 245 241 239 239 240 240 239 238 235 230 229 231 232 232 232 233 235 235 233 232 232 233 234 233 230 225 224 225 227 229 229 229 230
277 273 270 270 272 270 264 257 251 247 244 242 241 240 240 240 240 238 232 228 229 232 234 234 234 234 233 231 231 231 232 233 232 231 228 226 225 225 227 228 228 229
283 277 269 264 267 269 269 266 260 252 247 244 243 241 240 240 241 241 237 232 229 230 233 235 233 233 233 232 232 232 233 234 233 231 229 227 225 225 225 226 228 229
283 280 273 267 265 264 265 268 266 261 253 247 244 242 240 240 241 241 239 237 234 230 231 234 233 231 232 233 233 233 234 235 234 232 230 227 224 223 224 225 228 229
281 279 275 272 269 264 262 263 265 264 260 253 246 242 241 240 240 241 239 239 238 233 231 234 233 231 231 232 233 233 233 235 235 233 231 228 224 222 223 225 227 229
281 276 272 270 269 266 262 261 261 262 261 256 250 244 241 240 239 240 240 240 239 237 234 232 232 231 230 230 231 232 232 233 234 234 232 230 228 225 222 222 224 228
284 278 273 269 268 266 264 260 258 259 259 257 253 247 243 241 239 238 238 239 240 240 236 232 230 229 228 226 227 229 230 231 232 233 233 232 232 230 225 222 222 224
287 282 278 274 270 267 265 262 258 256 256 256 253 249 244 241 240 240 238 237 238 240 238 234 230 227 226 224 224 226 229 232 232 233 234 234 235 233 229 226 225 224
284 281 279 278 274 269 266 264 260 255 254 254 253 250 247 243 240 240 239 237 236 236 238 237 233 228 226 224 223 225 228 232 233 234 234 235 237 236 231 229 228 226
289 284 281 278 275 271 265 262 261 258 254 253 252 250 248 246 242 239 239 239 238 236 236 236 234 230 228 227 225 225 228 231 233 234 234 235 237 237 233 231 232 231
295 290 287 283 279 273 265 260 258 257 255 252 251 250 249 247 245 242 239 239 239 237 235 235 234 231 229 228 227 226 227 229 231 233 235 236 236 236 235 234 234 235
296 291 288 286 281 271 262 258 255 253 254 252 250 249 249 248 246 244 241 239 239 239 236 235 235 232 228 226 226 226 227 228 229 231 234 237 236 236 236 236 237 237
303 294 289 287 282 272 260 254 252 251 250 250 250 249 248 248 247 245 243 240 239 240 237 235 234 231 229 228 228 229 229 228 228 230 233 237 238 237 238 240 240 240
315 303 293 287 283 277 263 250 247 249 249 248 249 249 247 247 245 244 244 241 240 240 238 235 233 231 230 231 232 235 235 229 227 229 233 237 240 240 241 242 242 243
326 311 297 288 281 278 272 260 248 246 248 247 247 248 249 248 246 244 243 242 241 242 241 240 236 232 231 231 231 236 240 232 227 229 233 238 242 244 244 243 243 245
338 320 300 289 282 275 276 271 256 248 250 250 248 249 251 252 249 246 244 244 244 244 244 243 239 234 232 231 230 235 238 233 232 234 235 238 243 245 245 243 242 245
346 331 309 294 288 277 269 267 260 252 252 252 251 252 255 256 254 251 248 246 246 247 246 244 242 237 234 230 229 231 230 228 233 237 238 238 242 244 244 245 244 245
350 344 327 304 293 284 270 263 261 255 249 249 252 254 257 258 257 256 252 248 247 249 247 245 243 241 237 233 231 231 231 231 233 237 238 239 241 243 243 244 246 247
357 359 350 326 304 292 276 266 265 262 254 252 254 256 260 263 257 252 249 248 248 248 246 244 240 235 231 230 229 231 234 234 233 236 239 240 240 241 241 242 244 246
1 8 5 353 333 308 287 272 267 266 262 259 258 258 264 268 258 246 243 246 246 242 236 233 231 227 223 224 226 229 233 233 230 233 239 241 240 240 239 240 242 244